,,,PA_Meas_PMT16A,,PR_Meas_QMR101_102,,RH_Meas_QMH101,,SR_Meas_QMS101,,TA_Meas_QMH101,,GenWind,,GenWind,
date,time,status,PA,status,PR,status,RH,status,SR,status,TA,status,DirAvg,status,SpdAvg,
2011-10-25, 00:00:05,VALID,1003.58,VALID,0,VALID,95.3763,VALID,0,VALID,24.2857,VALID,38,VALID,0.314063,
2011-10-25, 00:01:05,VALID,1003.59,VALID,0,VALID,95.2923,VALID,0,VALID,24.2662,VALID,38,VALID,0.211328,
2011-10-25, 00:02:05,VALID,1003.61,VALID,0,VALID,95.2313,VALID,0,VALID,24.2468,VALID,38,VALID,0.239453,
2011-10-25, 00:03:05,VALID,1003.55,VALID,0,VALID,95.1932,VALID,0,VALID,24.2486,VALID,38,VALID,0.219922,
2011-10-25, 00:04:05,VALID,1003.57,VALID,0,VALID,95.2542,VALID,0,VALID,24.2273,VALID,38,VALID,0.289453,
2011-10-25, 00:05:05,VALID,1003.53,VALID,0,VALID,95.2695,VALID,0,VALID,24.2078,VALID,38,VALID,0.222266,
2011-10-25, 00:06:05,VALID,1003.5,VALID,0,VALID,95.2771,VALID,0,VALID,24.2078,VALID,38,VALID,0.1625,
2011-10-25, 00:07:05,VALID,1003.46,VALID,0,VALID,95.2847,VALID,0,VALID,24.1671,VALID,38,VALID,0.367969,
2011-10-25, 00:08:05,VALID,1003.46,VALID,0,VALID,95.2847,VALID,0,VALID,24.1884,VALID,38,VALID,0.382813,
2011-10-25, 00:09:05,VALID,1003.46,VALID,0,VALID,95.2008,VALID,0,VALID,24.1494,VALID,38,VALID,0.587109,
2011-10-25, 00:10:05,VALID,1003.45,VALID,0,VALID,95.1627,VALID,0,VALID,24.1513,VALID,38,VALID,0.555078,
2011-10-25, 00:11:05,VALID,1003.41,VALID,0,VALID,95.2313,VALID,0,VALID,24.13,VALID,38,VALID,0.366797,
2011-10-25, 00:12:05,VALID,1003.42,VALID,0,VALID,95.1474,VALID,0,VALID,24.091,VALID,38,VALID,0.373437,
2011-10-25, 00:13:05,VALID,1003.42,VALID,0,VALID,95.1855,VALID,0,VALID,24.091,VALID,38,VALID,0.409766,
2011-10-25, 00:14:05,VALID,1003.42,VALID,0,VALID,95.2084,VALID,0,VALID,24.0716,VALID,38,VALID,0.425,
2011-10-25, 00:15:05,VALID,1003.38,VALID,0,VALID,95.3229,VALID,0,VALID,24.0716,VALID,38,VALID,0.594141,
2011-10-25, 00:16:05,VALID,1003.39,VALID,0,VALID,95.3839,VALID,0,VALID,24.0716,VALID,38,VALID,0.533594,
2011-10-25, 00:17:05,VALID,1003.35,VALID,0,VALID,95.2923,VALID,0,VALID,24.0521,VALID,38,VALID,0.490625,
2011-10-25, 00:18:05,VALID,1003.35,VALID,0,VALID,95.1855,VALID,0,VALID,24.0132,VALID,38,VALID,0.433203,
2011-10-25, 00:19:05,VALID,1003.32,VALID,0,VALID,95.2542,VALID,0,VALID,23.9724,VALID,38,VALID,0.360156,
2011-10-25, 00:20:05,VALID,1003.32,VALID,0,VALID,95.3381,VALID,0.0815089,VALID,23.9724,VALID,38,VALID,0.293359,
2011-10-25, 00:21:05,VALID,1003.34,VALID,0,VALID,95.2618,VALID,0.0815089,VALID,23.9742,VALID,38,VALID,0.541406,
2011-10-25, 00:22:05,VALID,1003.28,VALID,0,VALID,95.3381,VALID,0,VALID,23.953,VALID,36,VALID,0.619922,
2011-10-25, 00:23:05,VALID,1003.28,VALID,0,VALID,95.361,VALID,0,VALID,23.9548,VALID,36,VALID,0.526172,
2011-10-25, 00:24:05,VALID,1003.22,VALID,0,VALID,95.3152,VALID,0,VALID,23.9353,VALID,36,VALID,0.518359,
2011-10-25, 00:25:05,VALID,1003.17,VALID,0,VALID,95.3,VALID,0,VALID,23.9371,VALID,36,VALID,0.348047,
2011-10-25, 00:26:05,VALID,1003.13,VALID,0,VALID,95.2695,VALID,0.0815089,VALID,23.8556,VALID,36,VALID,0.426953,
2011-10-25, 00:27:05,VALID,1003.1,VALID,0,VALID,95.3381,VALID,0,VALID,23.8769,VALID,36,VALID,0.502344,
2011-10-25, 00:28:05,VALID,1003.08,VALID,0,VALID,95.3381,VALID,0,VALID,23.8575,VALID,36,VALID,0.438672,
2011-10-25, 00:29:05,VALID,1003.08,VALID,0,VALID,95.4297,VALID,0.0815089,VALID,23.8575,VALID,36,VALID,0.428516,
2011-10-25, 00:30:05,VALID,1003.05,VALID,0,VALID,95.4602,VALID,0.0815089,VALID,23.8575,VALID,36,VALID,0.363281,
2011-10-25, 00:31:05,VALID,1003.02,VALID,0,VALID,95.4983,VALID,0,VALID,23.838,VALID,36,VALID,0.133984,
2011-10-25, 00:32:05,VALID,1003.02,VALID,0,VALID,95.5517,VALID,0.0815089,VALID,23.8575,VALID,36,VALID,0,
2011-10-25, 00:33:05,VALID,1002.98,VALID,0,VALID,95.5441,VALID,0,VALID,23.838,VALID,36,VALID,0.269141,
2011-10-25, 00:34:05,VALID,1003.01,VALID,0,VALID,95.5975,VALID,0,VALID,23.838,VALID,36,VALID,0.25,
2011-10-25, 00:35:05,VALID,1002.97,VALID,0,VALID,95.6738,VALID,0,VALID,23.8769,VALID,36,VALID,0.214844,
2011-10-25, 00:36:05,VALID,1002.99,VALID,0,VALID,95.689,VALID,0,VALID,23.8556,VALID,36,VALID,0.335156,
2011-10-25, 00:37:05,VALID,1002.96,VALID,0,VALID,95.6814,VALID,0,VALID,23.8964,VALID,36,VALID,0.246094,
2011-10-25, 00:38:05,VALID,1002.94,VALID,0,VALID,95.6814,VALID,0,VALID,23.8964,VALID,36,VALID,0.104687,
2011-10-25, 00:39:05,VALID,1002.92,VALID,0,VALID,95.7196,VALID,0,VALID,23.8964,VALID,36,VALID,0.181641,
2011-10-25, 00:40:05,VALID,1002.89,VALID,0,VALID,95.7196,VALID,0,VALID,23.8946,VALID,36,VALID,0.175,
2011-10-25, 00:41:05,VALID,1002.88,VALID,0,VALID,95.7882,VALID,0,VALID,23.9353,VALID,36,VALID,0.233594,
2011-10-25, 00:42:05,VALID,1002.81,VALID,0,VALID,95.8187,VALID,0,VALID,23.9548,VALID,36,VALID,0.371484,
2011-10-25, 00:43:05,VALID,1002.81,VALID,0,VALID,95.834,VALID,0.0815089,VALID,23.953,VALID,36,VALID,0.26875,
2011-10-25, 00:44:05,VALID,1002.79,VALID,0,VALID,95.7577,VALID,0,VALID,23.9742,VALID,36,VALID,0.371094,
2011-10-25, 00:45:05,VALID,1002.79,VALID,0,VALID,95.6433,VALID,0.0815089,VALID,23.9159,VALID,36,VALID,0.276172,
2011-10-25, 00:46:05,VALID,1002.73,VALID,0,VALID,95.5822,VALID,0,VALID,23.8769,VALID,36,VALID,0.392578,
2011-10-25, 00:47:05,VALID,1002.75,VALID,0,VALID,95.628,VALID,0,VALID,23.8556,VALID,36,VALID,0.417578,
2011-10-25, 00:48:05,VALID,1002.75,VALID,0,VALID,95.6738,VALID,0,VALID,23.8769,VALID,36,VALID,0.279687,
2011-10-25, 00:49:05,VALID,1002.76,VALID,0,VALID,95.7882,VALID,0,VALID,23.9353,VALID,36,VALID,0.50625,
2011-10-25, 00:50:05,VALID,1002.75,VALID,0,VALID,95.7653,VALID,0,VALID,23.9159,VALID,36,VALID,0.563672,
2011-10-25, 00:51:05,VALID,1002.73,VALID,0,VALID,95.7424,VALID,0,VALID,23.8946,VALID,36,VALID,0.408203,
2011-10-25, 00:52:05,VALID,1002.74,VALID,0,VALID,95.7043,VALID,0,VALID,23.9159,VALID,36,VALID,0.334375,
2011-10-25, 00:53:05,VALID,1002.76,VALID,0,VALID,95.5899,VALID,0,VALID,23.8769,VALID,36,VALID,0.41875,
2011-10-25, 00:54:05,VALID,1002.74,VALID,0,VALID,95.5822,VALID,0,VALID,23.8575,VALID,36,VALID,0.286719,
2011-10-25, 00:55:05,VALID,1002.7,VALID,0,VALID,95.7272,VALID,0,VALID,23.8575,VALID,36,VALID,0.310156,
2011-10-25, 00:56:05,VALID,1002.72,VALID,0,VALID,95.689,VALID,0,VALID,23.8556,VALID,36,VALID,0.323828,
2011-10-25, 00:57:05,VALID,1002.72,VALID,0,VALID,95.7806,VALID,0,VALID,23.8964,VALID,36,VALID,0.428125,
2011-10-25, 00:58:05,VALID,1002.76,VALID,0,VALID,95.7119,VALID,0,VALID,23.8769,VALID,36,VALID,0.338672,
2011-10-25, 00:59:05,VALID,1002.74,VALID,0,VALID,95.5746,VALID,0,VALID,23.8167,VALID,36,VALID,0.391406,
2011-10-25, 01:00:05,VALID,1002.72,VALID,0,VALID,95.5365,VALID,0,VALID,23.7991,VALID,36,VALID,0.226953,
2011-10-25, 01:01:05,VALID,1002.73,VALID,0,VALID,95.5441,VALID,0.0815089,VALID,23.7991,VALID,36,VALID,0,
2011-10-25, 01:02:05,VALID,1002.74,VALID,0,VALID,95.506,VALID,0,VALID,23.7601,VALID,36,VALID,0.133984,
2011-10-25, 01:03:05,VALID,1002.73,VALID,0,VALID,95.5441,VALID,0,VALID,23.7601,VALID,36,VALID,0.405078,
2011-10-25, 01:04:05,VALID,1002.74,VALID,0,VALID,95.5899,VALID,0,VALID,23.7601,VALID,36,VALID,0.335156,
2011-10-25, 01:05:05,VALID,1002.74,VALID,0,VALID,95.689,VALID,0,VALID,23.7601,VALID,36,VALID,0.351953,
2011-10-25, 01:06:05,VALID,1002.75,VALID,0,VALID,95.7882,VALID,0,VALID,23.7991,VALID,36,VALID,0.2,
2011-10-25, 01:07:05,VALID,1002.71,VALID,0,VALID,95.8798,VALID,0,VALID,23.838,VALID,36,VALID,0.00195313,
2011-10-25, 01:08:05,VALID,1002.7,VALID,0,VALID,95.9179,VALID,0,VALID,23.8575,VALID,36,VALID,0.242188,
2011-10-25, 01:09:05,VALID,1002.7,VALID,0,VALID,95.9484,VALID,0,VALID,23.9177,VALID,36,VALID,0.284375,
2011-10-25, 01:10:05,VALID,1002.69,VALID,0,VALID,95.9332,VALID,0,VALID,23.9371,VALID,36,VALID,0.300391,
2011-10-25, 01:11:05,VALID,1002.67,VALID,0,VALID,95.9103,VALID,0,VALID,23.9353,VALID,36,VALID,0.415234,
2011-10-25, 01:12:05,VALID,1002.69,VALID,0,VALID,95.9484,VALID,0,VALID,23.9548,VALID,39,VALID,0.485547,
2011-10-25, 01:13:05,VALID,1002.67,VALID,0,VALID,95.895,VALID,0,VALID,23.9548,VALID,39,VALID,0.266016,
2011-10-25, 01:14:05,VALID,1002.65,VALID,0,VALID,95.7653,VALID,0,VALID,23.9353,VALID,39,VALID,0.398438,
2011-10-25, 01:15:05,VALID,1002.64,VALID,0,VALID,95.6662,VALID,0,VALID,23.8751,VALID,39,VALID,0.325391,
2011-10-25, 01:16:05,VALID,1002.61,VALID,0,VALID,95.6356,VALID,0,VALID,23.8362,VALID,39,VALID,0.328906,
2011-10-25, 01:17:05,VALID,1002.61,VALID,0,VALID,95.5441,VALID,0.0815089,VALID,23.838,VALID,39,VALID,0.457422,
2011-10-25, 01:18:05,VALID,1002.63,VALID,0,VALID,95.4602,VALID,0.0815089,VALID,23.7583,VALID,39,VALID,0.319531,
2011-10-25, 01:19:05,VALID,1002.64,VALID,0,VALID,95.4907,VALID,0,VALID,23.7212,VALID,39,VALID,0.441406,
2011-10-25, 01:20:05,VALID,1002.65,VALID,0,VALID,95.5288,VALID,0,VALID,23.723,VALID,39,VALID,0.280469,
2011-10-25, 01:21:05,VALID,1002.63,VALID,0,VALID,95.5899,VALID,0,VALID,23.6823,VALID,39,VALID,0.394922,
2011-10-25, 01:22:05,VALID,1002.65,VALID,0,VALID,95.6814,VALID,0,VALID,23.6823,VALID,39,VALID,0.299609,
2011-10-25, 01:23:05,VALID,1002.64,VALID,0,VALID,95.7272,VALID,0,VALID,23.723,VALID,39,VALID,0.162109,
2011-10-25, 01:24:05,VALID,1002.67,VALID,0,VALID,95.7196,VALID,0,VALID,23.723,VALID,39,VALID,0.165234,
2011-10-25, 01:25:05,VALID,1002.63,VALID,0,VALID,95.7577,VALID,0,VALID,23.723,VALID,39,VALID,0.125391,
2011-10-25, 01:26:05,VALID,1002.64,VALID,0,VALID,95.9484,VALID,0,VALID,23.7814,VALID,39,VALID,0.237891,
2011-10-25, 01:27:05,VALID,1002.59,VALID,0,VALID,95.9484,VALID,0,VALID,23.7796,VALID,39,VALID,0.360547,
2011-10-25, 01:28:05,VALID,1002.59,VALID,0,VALID,95.9332,VALID,0,VALID,23.7991,VALID,39,VALID,0.398828,
2011-10-25, 01:29:05,VALID,1002.61,VALID,0,VALID,95.895,VALID,0,VALID,23.7991,VALID,39,VALID,0.3125,
2011-10-25, 01:30:05,VALID,1002.59,VALID,0,VALID,95.834,VALID,0,VALID,23.7991,VALID,39,VALID,0.244922,
2011-10-25, 01:31:05,VALID,1002.6,VALID,0,VALID,95.8035,VALID,0,VALID,23.8009,VALID,39,VALID,0.352734,
2011-10-25, 01:32:05,VALID,1002.56,VALID,0,VALID,95.8645,VALID,0,VALID,23.8009,VALID,39,VALID,0.317578,
2011-10-25, 01:33:05,VALID,1002.54,VALID,0,VALID,95.8874,VALID,0,VALID,23.8203,VALID,39,VALID,0.648828,
2011-10-25, 01:34:05,VALID,1002.54,VALID,0,VALID,95.8874,VALID,0,VALID,23.8203,VALID,39,VALID,0.465234,
2011-10-25, 01:35:05,VALID,1002.52,VALID,0,VALID,95.8035,VALID,0,VALID,23.7796,VALID,39,VALID,0.491797,
2011-10-25, 01:36:05,VALID,1002.52,VALID,0,VALID,95.7272,VALID,0,VALID,23.7814,VALID,39,VALID,0.44375,
2011-10-25, 01:37:05,VALID,1002.53,VALID,0,VALID,95.7043,VALID,0,VALID,23.7212,VALID,39,VALID,0.509375,
2011-10-25, 01:38:05,VALID,1002.53,VALID,0,VALID,95.7348,VALID,0,VALID,23.723,VALID,39,VALID,0.416406,
2011-10-25, 01:39:05,VALID,1002.52,VALID,0,VALID,95.6509,VALID,0,VALID,23.7035,VALID,39,VALID,0.132031,
2011-10-25, 01:40:05,VALID,1002.52,VALID,0,VALID,95.6662,VALID,0,VALID,23.6628,VALID,39,VALID,0.117969,
2011-10-25, 01:41:05,VALID,1002.51,VALID,0,VALID,95.7882,VALID,0,VALID,23.7053,VALID,39,VALID,0.0953125,
2011-10-25, 01:42:05,VALID,1002.51,VALID,0,VALID,95.7501,VALID,0,VALID,23.6841,VALID,39,VALID,0.264062,
2011-10-25, 01:43:05,VALID,1002.5,VALID,0,VALID,95.7424,VALID,0,VALID,23.6646,VALID,39,VALID,0.270312,
2011-10-25, 01:44:05,VALID,1002.5,VALID,0,VALID,95.8645,VALID,0,VALID,23.6823,VALID,39,VALID,0.153906,
2011-10-25, 01:45:05,VALID,1002.5,VALID,0,VALID,95.8798,VALID,0,VALID,23.7035,VALID,39,VALID,0.276172,
2011-10-25, 01:46:05,VALID,1002.48,VALID,0,VALID,95.8569,VALID,0,VALID,23.7035,VALID,39,VALID,0.358594,
2011-10-25, 01:47:05,VALID,1002.47,VALID,0,VALID,95.834,VALID,0,VALID,23.6841,VALID,39,VALID,0.3,
2011-10-25, 01:48:05,VALID,1002.47,VALID,0,VALID,95.834,VALID,0,VALID,23.6628,VALID,39,VALID,0.425781,
2011-10-25, 01:49:05,VALID,1002.47,VALID,0,VALID,95.7806,VALID,0,VALID,23.6646,VALID,39,VALID,0.450781,
2011-10-25, 01:50:05,VALID,1002.44,VALID,0,VALID,95.7196,VALID,0,VALID,23.6664,VALID,39,VALID,0.436719,
2011-10-25, 01:51:05,VALID,1002.44,VALID,0,VALID,95.6814,VALID,0,VALID,23.6062,VALID,39,VALID,0.376563,
2011-10-25, 01:52:05,VALID,1002.46,VALID,0,VALID,95.7119,VALID,0,VALID,23.5868,VALID,39,VALID,0.391406,
2011-10-25, 01:53:05,VALID,1002.49,VALID,0,VALID,95.7882,VALID,0,VALID,23.6062,VALID,39,VALID,0.472266,
2011-10-25, 01:54:05,VALID,1002.48,VALID,0,VALID,95.8416,VALID,0,VALID,23.6062,VALID,39,VALID,0.369531,
2011-10-25, 01:55:05,VALID,1002.49,VALID,0,VALID,95.8264,VALID,0,VALID,23.585,VALID,39,VALID,0.428516,
2011-10-25, 01:56:05,VALID,1002.48,VALID,0,VALID,95.8111,VALID,0,VALID,23.5868,VALID,39,VALID,0.399609,
2011-10-25, 01:57:05,VALID,1002.48,VALID,0,VALID,95.9103,VALID,0,VALID,23.6062,VALID,39,VALID,0.426562,
2011-10-25, 01:58:05,VALID,1002.51,VALID,0,VALID,95.8645,VALID,0,VALID,23.5868,VALID,39,VALID,0.339063,
2011-10-25, 01:59:05,VALID,1002.49,VALID,0,VALID,95.7272,VALID,0,VALID,23.5478,VALID,39,VALID,0.361719,
2011-10-25, 02:00:05,VALID,1002.5,VALID,0,VALID,95.7653,VALID,0,VALID,23.5266,VALID,39,VALID,0.398828,
2011-10-25, 02:01:05,VALID,1002.45,VALID,0,VALID,95.7501,VALID,0,VALID,23.5266,VALID,39,VALID,0.575391,
2011-10-25, 02:02:05,VALID,1002.48,VALID,0,VALID,95.7501,VALID,0,VALID,23.4859,VALID,39,VALID,0.398828,
2011-10-25, 02:03:05,VALID,1002.49,VALID,0,VALID,95.7806,VALID,0,VALID,23.4877,VALID,39,VALID,0.397266,
2011-10-25, 02:04:05,VALID,1002.47,VALID,0,VALID,95.9179,VALID,0,VALID,23.5071,VALID,39,VALID,0.283203,
2011-10-25, 02:05:05,VALID,1002.43,VALID,0,VALID,96.0323,VALID,0,VALID,23.5655,VALID,39,VALID,0.480469,
2011-10-25, 02:06:05,VALID,1002.42,VALID,0,VALID,96.0781,VALID,0,VALID,23.585,VALID,38,VALID,0.530469,
2011-10-25, 02:07:05,VALID,1002.4,VALID,0,VALID,96.0095,VALID,0,VALID,23.5637,VALID,38,VALID,0.308594,
2011-10-25, 02:08:05,VALID,1002.38,VALID,0,VALID,95.9332,VALID,0,VALID,23.5655,VALID,38,VALID,0.245312,
2011-10-25, 02:09:05,VALID,1002.39,VALID,0,VALID,95.9027,VALID,0,VALID,23.5266,VALID,38,VALID,0.286719,
2011-10-25, 02:10:05,VALID,1002.37,VALID,0,VALID,95.9255,VALID,0,VALID,23.5266,VALID,38,VALID,0.189453,
2011-10-25, 02:11:05,VALID,1002.35,VALID,0,VALID,95.8874,VALID,0,VALID,23.5071,VALID,38,VALID,0.171875,
2011-10-25, 02:12:05,VALID,1002.36,VALID,0,VALID,95.8569,VALID,0,VALID,23.4877,VALID,38,VALID,0.187891,
2011-10-25, 02:13:05,VALID,1002.32,VALID,0,VALID,95.9332,VALID,0,VALID,23.5089,VALID,38,VALID,0.394922,
2011-10-25, 02:14:04,VALID,1002.33,VALID,0,VALID,95.9332,VALID,0,VALID,23.5071,VALID,38,VALID,0.604688,
2011-10-25, 02:15:04,VALID,1002.3,VALID,0,VALID,95.9408,VALID,0,VALID,23.4664,VALID,38,VALID,0.53125,
2011-10-25, 02:16:04,VALID,1002.31,VALID,0,VALID,95.9789,VALID,0,VALID,23.4894,VALID,38,VALID,0.520312,
2011-10-25, 02:17:04,VALID,1002.33,VALID,0,VALID,95.9561,VALID,0.0815089,VALID,23.4877,VALID,38,VALID,0.414453,
2011-10-25, 02:18:04,VALID,1002.29,VALID,0,VALID,96.0323,VALID,0.0815089,VALID,23.4877,VALID,38,VALID,0.342187,
2011-10-25, 02:19:04,VALID,1002.28,VALID,0,VALID,96.0476,VALID,0,VALID,23.4859,VALID,38,VALID,0.295703,
2011-10-25, 02:20:04,VALID,1002.28,VALID,0,VALID,96.0171,VALID,0,VALID,23.4664,VALID,38,VALID,0.388281,
2011-10-25, 02:21:04,VALID,1002.25,VALID,0,VALID,96.04,VALID,0,VALID,23.5071,VALID,38,VALID,0.370703,
2011-10-25, 02:22:04,VALID,1002.27,VALID,0,VALID,96.0781,VALID,0,VALID,23.5071,VALID,38,VALID,0.40625,
2011-10-25, 02:23:04,VALID,1002.26,VALID,0,VALID,96.0552,VALID,0,VALID,23.4859,VALID,38,VALID,0.460938,
2011-10-25, 02:24:04,VALID,1002.28,VALID,0,VALID,96.0781,VALID,0,VALID,23.5071,VALID,38,VALID,0.295312,
2011-10-25, 02:25:04,VALID,1002.25,VALID,0,VALID,96.0781,VALID,0,VALID,23.5071,VALID,38,VALID,0.305469,
2011-10-25, 02:26:04,VALID,1002.25,VALID,0,VALID,96.0934,VALID,0,VALID,23.5071,VALID,38,VALID,0.184375,
2011-10-25, 02:27:04,VALID,1002.24,VALID,0,VALID,96.1468,VALID,0,VALID,23.546,VALID,38,VALID,0.292188,
2011-10-25, 02:28:04,VALID,1002.2,VALID,0,VALID,96.1697,VALID,0.0815089,VALID,23.5248,VALID,38,VALID,0.282813,
2011-10-25, 02:29:04,VALID,1002.18,VALID,0,VALID,96.162,VALID,0.0815089,VALID,23.5637,VALID,38,VALID,0.5125,
2011-10-25, 02:30:04,VALID,1002.19,VALID,0,VALID,96.1392,VALID,0,VALID,23.5248,VALID,38,VALID,0.433594,
2011-10-25, 02:31:04,VALID,1002.19,VALID,0,VALID,96.0705,VALID,0.0815089,VALID,23.5248,VALID,38,VALID,0.567578,
2011-10-25, 02:32:04,VALID,1002.22,VALID,0,VALID,96.0934,VALID,0,VALID,23.5248,VALID,38,VALID,0.603125,
2011-10-25, 02:33:04,VALID,1002.23,VALID,0,VALID,96.0857,VALID,0,VALID,23.5266,VALID,38,VALID,0.474609,
2011-10-25, 02:34:04,VALID,1002.24,VALID,0,VALID,96.0781,VALID,0,VALID,23.5053,VALID,38,VALID,0.458594,
2011-10-25, 02:35:04,VALID,1002.23,VALID,0,VALID,96.0629,VALID,0,VALID,23.5284,VALID,38,VALID,0.389844,
2011-10-25, 02:36:04,VALID,1002.25,VALID,0,VALID,96.0934,VALID,0,VALID,23.5478,VALID,38,VALID,0.452344,
2011-10-25, 02:37:04,VALID,1002.23,VALID,0,VALID,96.0934,VALID,0,VALID,23.5071,VALID,38,VALID,0.234375,
2011-10-25, 02:38:04,VALID,1002.25,VALID,0,VALID,96.1086,VALID,0,VALID,23.5478,VALID,38,VALID,0.124609,
2011-10-25, 02:39:04,VALID,1002.23,VALID,0,VALID,96.101,VALID,0,VALID,23.5266,VALID,38,VALID,0.205859,
2011-10-25, 02:40:04,VALID,1002.24,VALID,0,VALID,96.0095,VALID,0,VALID,23.4877,VALID,38,VALID,0.311328,
2011-10-25, 02:41:04,VALID,1002.24,VALID,0,VALID,95.9789,VALID,0,VALID,23.4487,VALID,38,VALID,0.396875,
2011-10-25, 02:42:04,VALID,1002.26,VALID,0,VALID,96.0323,VALID,0,VALID,23.4894,VALID,38,VALID,0.455078,
2011-10-25, 02:43:04,VALID,1002.26,VALID,0,VALID,96.0018,VALID,0,VALID,23.47,VALID,38,VALID,0.401953,
2011-10-25, 02:44:04,VALID,1002.25,VALID,0,VALID,96.04,VALID,0,VALID,23.47,VALID,38,VALID,0.442187,
2011-10-25, 02:45:04,VALID,1002.24,VALID,0,VALID,96.0857,VALID,0,VALID,23.47,VALID,38,VALID,0.410156,
2011-10-25, 02:46:04,VALID,1002.23,VALID,0,VALID,96.101,VALID,0,VALID,23.4682,VALID,38,VALID,0.433203,
2011-10-25, 02:47:04,VALID,1002.23,VALID,0,VALID,96.0018,VALID,0,VALID,23.4487,VALID,38,VALID,0.439453,
2011-10-25, 02:48:04,VALID,1002.25,VALID,0,VALID,96.0323,VALID,0,VALID,23.4718,VALID,38,VALID,0.484375,
2011-10-25, 02:49:04,VALID,1002.24,VALID,0,VALID,96.0629,VALID,0,VALID,23.4293,VALID,38,VALID,0.411719,
2011-10-25, 02:50:04,VALID,1002.25,VALID,0,VALID,96.0247,VALID,0,VALID,23.4293,VALID,38,VALID,0.374219,
2011-10-25, 02:51:04,VALID,1002.26,VALID,0,VALID,96.04,VALID,0,VALID,23.4311,VALID,38,VALID,0.404297,
2011-10-25, 02:52:04,VALID,1002.22,VALID,0,VALID,96.0552,VALID,0,VALID,23.4505,VALID,38,VALID,0.467187,
2011-10-25, 02:53:04,VALID,1002.24,VALID,0,VALID,96.0781,VALID,0,VALID,23.4098,VALID,38,VALID,0.520703,
2011-10-25, 02:54:04,VALID,1002.22,VALID,0,VALID,96.0705,VALID,0.0815089,VALID,23.4098,VALID,38,VALID,0.434766,
2011-10-25, 02:55:04,VALID,1002.2,VALID,0,VALID,96.0934,VALID,0,VALID,23.4098,VALID,38,VALID,0.435156,
2011-10-25, 02:56:04,VALID,1002.22,VALID,0,VALID,96.1086,VALID,0,VALID,23.4098,VALID,38,VALID,0.408984,
2011-10-25, 02:57:04,VALID,1002.22,VALID,0,VALID,96.101,VALID,0,VALID,23.3904,VALID,38,VALID,0.420703,
2011-10-25, 02:58:04,VALID,1002.21,VALID,0,VALID,96.0934,VALID,0,VALID,23.3921,VALID,38,VALID,0.360156,
2011-10-25, 02:59:04,VALID,1002.22,VALID,0,VALID,96.04,VALID,0,VALID,23.3514,VALID,38,VALID,0.438281,
2011-10-25, 03:00:04,VALID,1002.19,VALID,0,VALID,96.04,VALID,0,VALID,23.3302,VALID,38,VALID,0.392188,
2011-10-25, 03:01:04,VALID,1002.21,VALID,0,VALID,96.0476,VALID,0,VALID,23.332,VALID,38,VALID,0.325781,
2011-10-25, 03:02:04,VALID,1002.2,VALID,0,VALID,96.1697,VALID,0,VALID,23.3709,VALID,38,VALID,0.223047,
2011-10-25, 03:03:04,VALID,1002.17,VALID,0,VALID,96.1468,VALID,0,VALID,23.3727,VALID,38,VALID,0.270703,
2011-10-25, 03:04:04,VALID,1002.18,VALID,0,VALID,96.1544,VALID,0,VALID,23.3514,VALID,38,VALID,0.344141,
2011-10-25, 03:05:04,VALID,1002.19,VALID,0,VALID,96.1773,VALID,0,VALID,23.3709,VALID,38,VALID,0.430859,
2011-10-25, 03:06:04,VALID,1002.23,VALID,0,VALID,96.162,VALID,0,VALID,23.3514,VALID,38,VALID,0.326172,
2011-10-25, 03:07:04,VALID,1002.25,VALID,0,VALID,96.1239,VALID,0,VALID,23.3532,VALID,38,VALID,0.446094,
2011-10-25, 03:08:04,VALID,1002.23,VALID,0,VALID,96.0781,VALID,0,VALID,23.2931,VALID,38,VALID,0.367188,
2011-10-25, 03:09:04,VALID,1002.25,VALID,0,VALID,96.0552,VALID,0,VALID,23.2948,VALID,38,VALID,0.323828,
2011-10-25, 03:10:04,VALID,1002.23,VALID,0,VALID,96.1544,VALID,0,VALID,23.3143,VALID,38,VALID,0.309375,
2011-10-25, 03:11:04,VALID,1002.25,VALID,0,VALID,96.2154,VALID,0,VALID,23.332,VALID,38,VALID,0.310547,
2011-10-25, 03:12:04,VALID,1002.22,VALID,0,VALID,96.2612,VALID,0,VALID,23.3514,VALID,38,VALID,0.353906,
2011-10-25, 03:13:04,VALID,1002.23,VALID,0,VALID,96.2994,VALID,0,VALID,23.3709,VALID,38,VALID,0.490625,
2011-10-25, 03:14:04,VALID,1002.22,VALID,0,VALID,96.2841,VALID,0,VALID,23.4116,VALID,38,VALID,0.49375,
2011-10-25, 03:15:04,VALID,1002.24,VALID,0,VALID,96.246,VALID,0,VALID,23.3921,VALID,38,VALID,0.527734,
2011-10-25, 03:16:04,VALID,1002.25,VALID,0,VALID,96.162,VALID,0,VALID,23.3514,VALID,38,VALID,0.478906,
2011-10-25, 03:17:04,VALID,1002.27,VALID,0,VALID,96.1849,VALID,0,VALID,23.3514,VALID,38,VALID,0.496484,
2011-10-25, 03:18:04,VALID,1002.27,VALID,0,VALID,96.2688,VALID,0,VALID,23.3514,VALID,38,VALID,0.469531,
2011-10-25, 03:19:04,VALID,1002.27,VALID,0,VALID,96.2917,VALID,0,VALID,23.3921,VALID,38,VALID,0.472266,
2011-10-25, 03:20:04,VALID,1002.28,VALID,0,VALID,96.307,VALID,0,VALID,23.4116,VALID,38,VALID,0.471094,
2011-10-25, 03:21:04,VALID,1002.25,VALID,0,VALID,96.246,VALID,0,VALID,23.3921,VALID,38,VALID,0.514844,
2011-10-25, 03:22:04,VALID,1002.28,VALID,0,VALID,96.2383,VALID,0,VALID,23.3709,VALID,38,VALID,0.529688,
2011-10-25, 03:23:04,VALID,1002.25,VALID,0,VALID,96.2612,VALID,0,VALID,23.3709,VALID,38,VALID,0.537891,
2011-10-25, 03:24:04,VALID,1002.24,VALID,0,VALID,96.1926,VALID,0,VALID,23.3727,VALID,38,VALID,0.496875,
2011-10-25, 03:25:04,VALID,1002.25,VALID,0,VALID,96.162,VALID,0,VALID,23.3107,VALID,38,VALID,0.453906,
2011-10-25, 03:26:04,VALID,1002.24,VALID,0,VALID,96.162,VALID,0,VALID,23.3143,VALID,38,VALID,0.364453,
2011-10-25, 03:27:04,VALID,1002.24,VALID,0,VALID,96.1849,VALID,0,VALID,23.2736,VALID,38,VALID,0.310156,
2011-10-25, 03:28:04,VALID,1002.21,VALID,0,VALID,96.1926,VALID,0,VALID,23.2931,VALID,38,VALID,0.2625,
2011-10-25, 03:29:04,VALID,1002.2,VALID,0,VALID,96.1773,VALID,0.0815089,VALID,23.2931,VALID,38,VALID,0.333203,
2011-10-25, 03:30:04,VALID,1002.21,VALID,0,VALID,96.1926,VALID,0.0815089,VALID,23.2948,VALID,38,VALID,0.398047,
2011-10-25, 03:31:04,VALID,1002.22,VALID,0,VALID,96.246,VALID,0,VALID,23.3143,VALID,38,VALID,0.424219,
2011-10-25, 03:32:04,VALID,1002.2,VALID,0,VALID,96.2307,VALID,0,VALID,23.2736,VALID,38,VALID,0.514453,
2011-10-25, 03:33:04,VALID,1002.18,VALID,0,VALID,96.162,VALID,0,VALID,23.2559,VALID,38,VALID,0.517187,
2011-10-25, 03:34:04,VALID,1002.19,VALID,0,VALID,96.1926,VALID,0,VALID,23.2152,VALID,38,VALID,0.338281,
2011-10-25, 03:35:04,VALID,1002.19,VALID,0,VALID,96.1773,VALID,0,VALID,23.217,VALID,38,VALID,0.433594,
2011-10-25, 03:36:04,VALID,1002.2,VALID,0,VALID,96.1926,VALID,0,VALID,23.2152,VALID,38,VALID,0.397266,
2011-10-25, 03:37:04,VALID,1002.22,VALID,0,VALID,96.2231,VALID,0,VALID,23.217,VALID,38,VALID,0.38125,
2011-10-25, 03:38:04,VALID,1002.23,VALID,0,VALID,96.246,VALID,0,VALID,23.2152,VALID,38,VALID,0.38125,
2011-10-25, 03:39:04,VALID,1002.23,VALID,0,VALID,96.2536,VALID,0,VALID,23.1957,VALID,38,VALID,0.269922,
2011-10-25, 03:40:04,VALID,1002.22,VALID,0,VALID,96.2994,VALID,0,VALID,23.2152,VALID,38,VALID,0.176563,
2011-10-25, 03:41:04,VALID,1002.24,VALID,0,VALID,96.2765,VALID,0,VALID,23.1957,VALID,38,VALID,0.139844,
2011-10-25, 03:42:04,VALID,1002.23,VALID,0,VALID,96.2841,VALID,0,VALID,23.1957,VALID,38,VALID,0.280469,
2011-10-25, 03:43:04,VALID,1002.24,VALID,0,VALID,96.2841,VALID,0,VALID,23.2364,VALID,38,VALID,0.340625,
2011-10-25, 03:44:04,VALID,1002.21,VALID,0,VALID,96.2078,VALID,0,VALID,23.1568,VALID,38,VALID,0.355469,
2011-10-25, 03:45:04,VALID,1002.21,VALID,0,VALID,96.1697,VALID,0,VALID,23.1391,VALID,38,VALID,0.425,